Wind_Speed
21 21 21 21 21 21 21 20 21 21 21 21 21 21 20 20 21 21 21 22 23 23 22 23 23 23 22 23 23 23 23 23 24 24 24 24 23 23 23 23 23 22 22
22 22 23 23 23 23 22 22 22 22 23 22 23 23 23 22 23 24 23 23 24 24 23 23 24 24 24 24 24 24 25 24 25 26 26 26 26 26 25 24 25 25 24
23 23 23 23 23 23 24 24 24 24 24 23 23 23 24 24 23 25 25 25 25 25 25 24 25 25 25 26 26 26 26 27 28 27 27 27 27 27 27 27 26 26 26
23 23 23 23 23 23 24 24 24 24 24 24 23 23 24 23 24 24 25 26 27 26 26 26 25 25 26 27 27 28 28 29 29 29 29 29 29 28 28 28 27 27 28
23 23 23 23 24 24 25 25 25 24 24 25 25 25 25 25 25 25 25 26 26 27 27 27 26 26 27 27 28 28 28 29 30 30 30 30 29 29 29 29 29 28 29
23 24 25 25 25 25 25 25 25 25 26 26 26 26 27 28 28 27 26 26 26 26 26 27 27 27 27 28 27 27 27 28 29 31 31 31 30 29 30 31 30 30 29
26 26 26 26 25 25 25 26 26 26 27 27 27 27 27 28 28 28 28 27 27 28 27 28 28 28 28 27 27 27 27 28 29 30 32 32 31 30 31 31 31 31 31
26 26 27 27 27 27 26 26 26 27 27 27 27 27 27 28 28 28 28 28 28 28 28 29 29 29 29 28 28 27 26 27 29 30 30 31 32 31 30 31 32 32 32
27 27 27 27 27 27 27 27 28 28 28 28 28 29 28 28 28 28 28 28 28 28 28 29 29 30 29 29 29 29 28 28 28 29 29 29 30 31 30 31 31 32 32
27 27 27 27 27 27 27 28 28 29 29 29 29 30 30 29 29 28 29 29 29 29 28 29 29 28 28 29 29 29 29 28 28 29 29 29 29 30 30 31 31 32 32
28 28 28 28 28 28 27 27 28 29 29 30 30 30 30 30 29 29 28 29 29 29 30 30 30 29 29 30 30 30 30 30 28 29 29 30 30 30 31 31 30 30 31
28 29 29 29 29 29 28 28 28 29 29 29 30 30 30 30 30 29 29 29 29 30 30 29 29 30 30 30 30 31 31 31 30 29 30 31 31 31 31 31 31 31 31
29 29 29 29 29 29 29 29 30 30 29 29 29 30 30 30 30 30 30 30 30 30 30 29 29 29 30 30 30 31 31 31 31 30 30 31 31 31 31 30 31 31 32
28 29 29 29 29 29 29 30 30 30 30 30 29 29 29 30 30 30 30 30 30 30 30 30 29 28 28 29 29 30 30 30 30 30 30 30 31 31 31 31 31 32 31
28 27 27 28 28 28 29 29 30 31 31 30 29 29 29 29 30 30 30 30 30 30 29 30 29 28 28 27 28 29 29 29 29 29 30 30 30 29 30 30 29 30 30
27 27 27 27 27 27 28 30 30 30 30 29 29 29 29 29 29 30 30 29 29 29 29 29 28 29 29 28 28 27 27 27 27 28 28 28 28 28 28 28 28 29 28
27 26 26 26 26 27 27 28 29 29 28 29 29 28 28 29 29 28 28 28 28 28 28 28 27 27 26 26 26 26 26 25 26 26 27 27 28 27 28 27 27 27 27
24 24 23 24 24 24 25 26 26 26 26 26 27 27 27 27 27 27 27 26 27 27 27 26 25 25 25 25 25 24 24 25 25 25 26 26 26 26 25 25 24 24 24
21 21 21 20 21 22 23 23 23 23 23 23 24 24 24 24 25 25 25 25 25 24 24 23 23 23 23 23 23 23 22 22 22 22 23 22 22 22 21 21 22 22 23
19 18 18 18 19 19 20 20 21 20 21 20 21 21 22 22 22 22 23 23 23 22 21 21 20 20 21 21 21 21 20 20 19 19 19 19 20 20 20 20 21 21 21
17 16 16 16 17 17 17 18 18 18 18 18 18 18 18 18 19 19 19 19 19 19 18 18 18 18 18 18 18 18 18 18 17 17 17 18 18 18 18 18 19 19 19
15 15 15 15 15 16 16 16 16 16 16 15 15 15 15 15 15 15 14 14 15 15 15 15 15 15 15 15 15 15 15 15 14 14 14 15 16 15 15 16 16 16 16
14 14 14 14 15 15 15 15 14 14 13 13 13 13 13 12 11 10 10 10 11 12 12 12 12 12 12 12 12 12 12 12 12 12 13 13 13 13 13 14 14 14 14
12 11 12 13 13 13 13 13 13 13 13 12 11 11 10 9 8 7 7 8 8 8 9 10 10 10 10 9 9 9 9 10 10 11 11 11 11 11 11 12 12 13 14
11 10 11 12 12 12 12 12 12 12 11 10 10 9 8 7 7 6 5 5 5 5 5 5 6 6 6 6 6 7 7 7 8 8 9 9 9 10 11 11 12 13 14
10 9 10 9 10 12 12 11 10 10 10 9 9 7 7 6 5 5 4 3 2 2 2 2 3 3 3 3 3 4 5 5 5 6 7 7 8 9 9 11 13 13 14
Wind_Direction
278 279 281 280 279 278 280 280 280 282 282 281 280 278 276 276 274 273 273 273 272 273 273 271 269 266 265 265 264 263 262 259 259 258 257 256 255 255 253 251 250 250 251
278 281 282 283 282 281 280 280 281 281 282 281 280 279 277 276 275 273 273 273 273 273 273 273 271 267 265 265 264 263 263 261 260 260 258 256 256 254 253 251 252 251 251
279 281 284 283 282 281 281 281 282 281 282 281 280 278 277 278 276 275 275 274 273 272 272 273 272 268 265 264 264 264 263 261 261 261 260 258 257 254 252 252 253 254 253
279 280 283 282 281 281 282 282 282 281 280 280 279 279 278 279 279 278 277 276 274 272 273 272 271 268 267 265 266 266 264 262 261 261 260 259 258 256 253 252 253 255 256
279 280 281 282 281 280 281 281 281 281 282 280 279 278 278 277 279 279 278 278 277 274 273 273 271 270 269 267 268 267 265 263 261 261 260 260 258 257 254 253 255 255 256
280 281 282 282 282 282 282 281 281 281 281 281 280 279 277 276 277 277 277 278 277 275 273 272 271 272 272 271 269 268 268 266 264 261 260 259 257 257 256 254 255 255 256
281 282 283 282 281 282 282 281 281 282 282 281 281 280 279 277 276 276 276 276 276 276 274 273 272 271 270 272 272 271 269 268 267 265 261 259 258 258 257 256 256 257 257
284 282 282 282 282 282 282 282 282 283 283 283 282 281 281 280 278 277 277 276 276 276 275 274 274 272 269 269 271 271 271 270 268 268 266 263 261 260 259 259 258 258 257
286 284 283 283 283 283 283 283 282 283 283 283 282 282 281 281 280 279 278 278 277 275 275 275 274 272 271 270 270 270 269 268 269 268 267 265 263 261 261 260 259 258 258
286 285 283 284 284 284 284 284 283 283 283 282 281 281 280 280 280 280 278 277 277 276 276 276 275 274 274 273 272 270 269 269 269 268 267 266 265 264 262 261 262 261 259
285 286 285 285 285 284 284 284 284 284 283 281 280 280 279 279 279 279 278 277 276 276 276 276 276 275 274 273 271 269 269 270 269 268 268 267 265 266 265 264 264 263 261
285 285 284 286 285 284 285 285 286 285 284 283 281 280 279 278 278 278 278 278 277 277 277 276 274 275 274 272 271 268 269 270 269 269 267 267 266 267 268 267 267 267 266
286 286 285 286 286 285 285 285 286 286 285 285 283 282 280 279 279 278 278 278 278 277 277 274 275 274 273 272 271 268 269 270 270 268 268 267 267 268 270 272 272 272 270
287 287 285 285 285 285 285 285 285 285 285 285 284 283 282 280 279 279 278 277 277 276 276 276 274 273 272 272 271 270 269 269 270 269 269 269 269 270 272 272 274 274 272
287 288 286 285 285 286 285 285 285 285 285 285 284 283 282 280 279 278 277 276 275 275 274 274 273 272 273 274 274 272 270 269 269 271 271 272 273 272 272 272 272 273 272
288 288 288 288 287 287 287 286 286 285 285 284 283 283 282 280 279 278 276 276 276 275 274 273 272 273 273 273 275 272 270 269 270 271 272 274 275 274 274 273 272 271 273
292 291 289 288 288 289 289 289 288 287 285 284 284 283 281 279 278 277 276 275 275 275 275 272 272 272 272 273 273 273 271 270 270 271 273 272 273 274 275 274 273 272 274
295 294 294 293 291 292 292 292 291 290 289 286 285 283 281 279 278 276 275 274 274 274 274 273 273 271 271 271 273 273 273 272 272 271 273 275 274 274 275 274 274 275 275
299 297 298 298 297 296 296 296 295 295 292 289 287 284 282 281 279 277 275 273 273 274 272 271 272 271 272 271 271 272 273 273 272 272 274 275 274 274 275 276 277 277 276
303 300 300 302 302 301 299 300 300 298 296 293 290 288 285 283 281 278 275 273 271 270 269 268 269 271 272 271 271 271 271 271 273 273 275 276 276 275 275 278 281 280 279
309 308 307 307 308 307 306 306 304 301 300 297 295 294 290 287 285 282 277 273 269 267 267 267 268 269 270 270 269 267 268 271 273 274 275 277 277 277 277 279 283 283 282
311 313 314 314 314 314 314 312 309 306 304 302 301 301 299 295 290 284 277 272 270 269 268 267 267 268 267 267 265 264 266 267 270 271 273 277 279 280 281 283 286 285 280
312 313 317 320 321 321 319 318 316 315 313 311 307 306 307 307 300 292 283 277 271 270 269 267 268 269 268 265 264 263 265 267 265 266 271 276 279 282 284 286 288 288 286
319 320 322 324 324 324 325 327 326 325 326 323 318 316 313 313 315 308 295 284 278 275 270 267 268 267 265 265 265 266 270 271 271 271 275 281 283 287 293 295 293 291 292
327 328 330 332 333 334 333 332 334 336 334 333 332 330 326 323 324 323 315 303 292 280 272 269 269 264 262 266 267 267 271 274 277 279 285 289 293 298 299 300 301 298 294
337 337 341 344 346 347 346 346 345 344 347 349 351 351 348 345 346 345 344 339 318 284 270 271 276 277 275 269 265 269 275 274 283 289 296 300 302 304 306 307 308 305 305
Height
5869 5869 5869 5868 5868 5868 5867 5867 5867 5867 5866 5865 5865 5865 5864 5864 5865 5865 5865 5865 5865 5866 5865 5865 5866 5866 5866 5867 5867 5868 5868 5869 5869 5870 5871 5872 5873 5874 5875 5876 5876 5877 5878
5865 5865 5864 5863 5863 5863 5862 5862 5861 5862 5861 5860 5860 5860 5860 5859 5859 5859 5860 5860 5860 5860 5860 5860 5860 5860 5861 5861 5862 5862 5863 5863 5864 5865 5866 5867 5868 5869 5869 5870 5871 5872 5873
5860 5860 5859 5859 5858 5858 5857 5856 5856 5856 5856 5855 5855 5855 5855 5854 5853 5853 5854 5854 5854 5855 5855 5855 5855 5855 5855 5856 5856 5857 5857 5858 5858 5859 5860 5861 5862 5863 5864 5865 5866 5867 5868
5855 5854 5854 5853 5852 5852 5852 5851 5851 5851 5850 5850 5850 5849 5849 5848 5848 5848 5848 5848 5848 5848 5848 5849 5849 5849 5849 5850 5850 5850 5851 5851 5852 5853 5853 5854 5855 5856 5857 5858 5859 5860 5862
5850 5849 5849 5848 5847 5846 5846 5846 5845 5845 5844 5844 5843 5843 5843 5842 5842 5842 5841 5841 5841 5842 5842 5842 5843 5843 5843 5843 5843 5843 5844 5844 5845 5846 5847 5848 5848 5849 5851 5852 5853 5854 5855
5845 5844 5843 5842 5841 5841 5840 5839 5839 5838 5838 5837 5837 5836 5836 5836 5835 5835 5835 5835 5834 5834 5835 5836 5836 5836 5836 5836 5836 5837 5837 5837 5838 5839 5840 5840 5841 5843 5844 5845 5846 5847 5848
5839 5838 5837 5836 5835 5835 5834 5833 5832 5831 5831 5830 5830 5829 5829 5828 5828 5828 5828 5828 5828 5827 5828 5828 5828 5829 5829 5829 5829 5830 5830 5830 5831 5831 5832 5833 5834 5835 5837 5838 5839 5840 5841
5832 5832 5831 5830 5829 5828 5827 5826 5825 5825 5824 5823 5823 5822 5822 5822 5821 5821 5821 5820 5820 5820 5821 5821 5821 5821 5821 5822 5823 5823 5823 5824 5824 5824 5825 5826 5827 5828 5829 5830 5831 5832 5833
5826 5825 5824 5823 5822 5821 5820 5819 5818 5818 5817 5816 5815 5815 5814 5814 5813 5813 5813 5813 5813 5813 5813 5813 5814 5814 5814 5815 5815 5816 5816 5817 5817 5817 5818 5819 5819 5820 5821 5822 5823 5824 5825
5819 5818 5817 5816 5815 5814 5813 5812 5811 5810 5809 5809 5808 5807 5806 5806 5806 5806 5806 5805 5805 5805 5805 5805 5805 5806 5806 5807 5807 5808 5809 5809 5810 5810 5811 5812 5812 5813 5814 5815 5815 5816 5817
5813 5811 5810 5809 5808 5807 5806 5805 5804 5803 5802 5801 5800 5799 5799 5798 5798 5798 5798 5798 5798 5798 5798 5798 5798 5798 5799 5799 5800 5800 5801 5802 5802 5803 5804 5805 5805 5806 5806 5807 5808 5809 5810
5806 5805 5803 5802 5801 5800 5799 5798 5797 5796 5794 5793 5792 5792 5791 5790 5790 5790 5790 5790 5790 5790 5790 5790 5790 5790 5790 5791 5792 5792 5793 5794 5795 5796 5796 5797 5798 5798 5799 5799 5800 5801 5802
5799 5797 5796 5795 5794 5793 5791 5791 5790 5788 5787 5786 5785 5784 5783 5782 5782 5782 5782 5782 5782 5782 5782 5782 5782 5782 5782 5783 5784 5784 5785 5786 5787 5788 5789 5790 5790 5791 5792 5792 5792 5793 5794
5791 5789 5788 5787 5786 5785 5784 5783 5782 5780 5779 5778 5776 5775 5775 5774 5773 5773 5773 5774 5774 5774 5774 5774 5774 5774 5775 5775 5776 5777 5777 5778 5779 5780 5781 5782 5783 5783 5784 5784 5785 5785 5785
5784 5782 5780 5779 5778 5777 5776 5775 5773 5772 5771 5769 5768 5767 5767 5766 5765 5765 5765 5765 5766 5766 5766 5766 5766 5766 5767 5767 5768 5768 5769 5770 5771 5772 5773 5774 5775 5775 5776 5776 5777 5777 5777
5776 5774 5773 5772 5770 5769 5768 5766 5765 5764 5762 5761 5760 5759 5758 5758 5757 5757 5756 5757 5757 5757 5758 5758 5758 5759 5759 5760 5760 5761 5761 5762 5763 5764 5765 5766 5767 5767 5768 5768 5769 5769 5769
5769 5767 5766 5764 5762 5761 5760 5758 5757 5755 5754 5753 5752 5751 5750 5749 5749 5749 5748 5748 5749 5749 5750 5750 5750 5751 5752 5752 5753 5753 5754 5755 5756 5757 5758 5758 5759 5760 5760 5760 5761 5761 5761
5762 5761 5759 5757 5755 5754 5753 5751 5749 5748 5746 5745 5744 5743 5742 5741 5741 5741 5741 5741 5741 5741 5742 5743 5743 5744 5744 5745 5746 5746 5747 5748 5749 5750 5750 5751 5752 5752 5753 5753 5753 5753 5753
5757 5755 5753 5751 5750 5748 5747 5745 5743 5741 5739 5738 5737 5736 5735 5734 5733 5733 5733 5734 5734 5734 5734 5735 5736 5736 5737 5738 5739 5740 5740 5741 5742 5743 5744 5744 5745 5745 5746 5746 5746 5746 5746
5752 5750 5748 5746 5745 5743 5741 5739 5737 5735 5734 5732 5731 5729 5728 5727 5727 5726 5726 5727 5727 5727 5728 5729 5729 5730 5731 5732 5732 5733 5735 5735 5736 5737 5738 5739 5739 5739 5740 5740 5739 5739 5738
5748 5746 5744 5742 5741 5739 5736 5734 5732 5730 5729 5727 5726 5724 5723 5721 5720 5720 5720 5720 5721 5721 5722 5723 5724 5725 5725 5726 5727 5728 5729 5730 5731 5731 5732 5733 5734 5734 5734 5734 5733 5732 5732
5745 5743 5741 5739 5737 5735 5732 5730 5728 5726 5724 5723 5721 5720 5718 5717 5716 5715 5715 5715 5716 5716 5717 5718 5719 5719 5720 5721 5722 5723 5724 5725 5726 5727 5728 5728 5729 5729 5729 5728 5728 5727 5727
5743 5741 5739 5737 5734 5732 5729 5727 5725 5723 5721 5720 5718 5717 5715 5714 5712 5711 5711 5711 5712 5712 5713 5714 5715 5715 5716 5717 5718 5719 5720 5721 5722 5723 5724 5724 5724 5724 5724 5724 5723 5723 5722
5740 5738 5736 5734 5732 5730 5727 5725 5723 5721 5719 5717 5715 5714 5713 5711 5710 5710 5709 5709 5709 5709 5710 5711 5712 5712 5713 5714 5714 5715 5717 5718 5718 5719 5720 5721 5721 5721 5720 5720 5719 5718 5718
5739 5737 5735 5733 5731 5728 5726 5724 5722 5720 5718 5716 5714 5712 5711 5710 5709 5708 5708 5708 5707 5708 5708 5709 5709 5710 5711 5711 5712 5713 5714 5715 5716 5717 5717 5718 5718 5717 5717 5716 5715 5714 5713
5737 5736 5734 5732 5730 5728 5725 5723 5721 5719 5717 5715 5713 5712 5710 5709 5708 5708 5707 5707 5707 5707 5708 5708 5708 5709 5709 5710 5710 5711 5712 5713 5714 5714 5715 5715 5715 5714 5714 5713 5711 5710 5709